When you browse on this site, cookies collect data to enhance your experience and personalize the content and advertising you see.
Visit our Privacy Policy to learn more. By continuing to use the site, you agree to this use of cookies and data.
EN

Hourly Weather Rawson

Today, 5 July, Sunday

Time Temperature Precipitation Wind Pressure Humidity
00:00 +3°C° 0 mm 7 mps 759 mmHg 79%
01:00 +2°C° 0 mm 7 mps 760 mmHg 80%
02:00 +2°C° 0 mm 7 mps 760 mmHg 80%
03:00 +2°C° 0 mm 7 mps 760 mmHg 83%
04:00 +2°C° 0 mm 7 mps 760 mmHg 85%
05:00 +2°C° 0 mm 6 mps 760 mmHg 87%
06:00 +2°C° 0.2 mm 6 mps 761 mmHg 87%
07:00 +2°C° 0.2 mm 5 mps 762 mmHg 88%
08:00 +2°C° 0.2 mm 5 mps 762 mmHg 88%
09:00 +2°C° 0.8 mm 5 mps 763 mmHg 88%
10:00 +3°C° 0.8 mm 5 mps 763 mmHg 88%
11:00 +3°C° 0.8 mm 6 mps 763 mmHg 88%
12:00 +5°C° 0.7 mm 5 mps 763 mmHg 82%
13:00 +5°C° 0.7 mm 5 mps 763 mmHg 75%
14:00 +5°C° 0.7 mm 5 mps 763 mmHg 69%
15:00 +5°C° 0 mm 5 mps 764 mmHg 68%
16:00 +3°C° 0 mm 5 mps 764 mmHg 67%
17:00 +4°C° 0 mm 4 mps 765 mmHg 65%
18:00 +4°C° 0 mm 4 mps 765 mmHg 66%
19:00 +4°C° 0 mm 4 mps 766 mmHg 67%
20:00 +3°C° 0 mm 4 mps 766 mmHg 68%
21:00 +3°C° 0 mm 3 mps 766 mmHg 69%
22:00 +3°C° 0 mm 3 mps 767 mmHg 70%
23:00 +4°C° 0 mm 2 mps 767 mmHg 70%

Tomorrow, 6 July, Monday

Time Temperature Precipitation Wind Pressure Humidity
00:00 +3°C° 0 mm 2 mps 767 mmHg 72%
01:00 +3°C° 0 mm 2 mps 767 mmHg 73%
02:00 +3°C° 0 mm 2 mps 767 mmHg 74%
03:00 +4°C° 0 mm 1 mps 767 mmHg 75%
04:00 +4°C° 0 mm 1 mps 767 mmHg 75%
05:00 +4°C° 0 mm 1 mps 767 mmHg 76%
06:00 +4°C° 0 mm 1 mps 767 mmHg 77%
07:00 +4°C° 0 mm 1 mps 768 mmHg 77%
08:00 +4°C° 0 mm 1 mps 768 mmHg 78%
09:00 +5°C° 0 mm 1 mps 768 mmHg 73%
10:00 +4°C° 0 mm 2 mps 768 mmHg 68%
11:00 +5°C° 0 mm 2 mps 768 mmHg 63%
12:00 +6°C° 0 mm 2 mps 768 mmHg 60%
13:00 +5°C° 0 mm 3 mps 767 mmHg 57%
14:00 +7°C° 0 mm 3 mps 767 mmHg 54%
15:00 +5°C° 0 mm 3 mps 767 mmHg 57%
16:00 +5°C° 0 mm 3 mps 767 mmHg 59%
17:00 +5°C° 0 mm 3 mps 767 mmHg 62%
18:00 +5°C° 0 mm 4 mps 767 mmHg 63%
19:00 +5°C° 0 mm 4 mps 767 mmHg 65%
20:00 +4°C° 0 mm 4 mps 767 mmHg 66%
21:00 +4°C° 0 mm 4 mps 767 mmHg 67%
22:00 +4°C° 0 mm 4 mps 767 mmHg 68%
23:00 +4°C° 0 mm 4 mps 766 mmHg 70%

Day after tomorrow, 7 July, Tuesday

Time Temperature Precipitation Wind Pressure Humidity
00:00 +2°C° 0 mm 5 mps 766 mmHg 74%
01:00 +2°C° 0 mm 5 mps 766 mmHg 77%
02:00 +2°C° 0 mm 5 mps 766 mmHg 81%
03:00 +2°C° 0 mm 6 mps 766 mmHg 81%
04:00 +1°C° 0 mm 6 mps 765 mmHg 80%
05:00 0°C° 0 mm 7 mps 765 mmHg 79%
06:00 0°C° 0 mm 7 mps 765 mmHg 77%
07:00 -1°C° 0 mm 8 mps 765 mmHg 75%
08:00 -1°C° 0 mm 8 mps 765 mmHg 73%
09:00 +1°C° 0 mm 9 mps 764 mmHg 69%
10:00 +2°C° 0 mm 10 mps 764 mmHg 66%
11:00 +4°C° 0 mm 11 mps 764 mmHg 63%
12:00 +4°C° 0 mm 11 mps 763 mmHg 63%
13:00 +6°C° 0 mm 11 mps 763 mmHg 64%
14:00 +6°C° 0 mm 11 mps 762 mmHg 64%
15:00 +6°C° 0 mm 11 mps 762 mmHg 65%
16:00 +6°C° 0 mm 11 mps 761 mmHg 66%
17:00 +5°C° 0 mm 10 mps 761 mmHg 67%
18:00 +4°C° 0 mm 11 mps 760 mmHg 68%
19:00 +4°C° 0 mm 11 mps 760 mmHg 69%
20:00 +4°C° 0 mm 11 mps 760 mmHg 70%
21:00 +4°C° 0 mm 11 mps 759 mmHg 71%
22:00 +4°C° 0 mm 11 mps 759 mmHg 72%
23:00 +4°C° 0 mm 11 mps 758 mmHg 72%

8 July, Wednesday

Time Temperature Precipitation Wind Pressure Humidity
00:00 +3°C° 0 mm 11 mps 757 mmHg 72%
01:00 +3°C° 0 mm 11 mps 757 mmHg 71%
02:00 +3°C° 0 mm 11 mps 756 mmHg 70%
03:00 +3°C° 0 mm 10 mps 756 mmHg 69%
04:00 +3°C° 0 mm 10 mps 756 mmHg 69%
05:00 +3°C° 0 mm 10 mps 755 mmHg 69%
06:00 +4°C° 0.1 mm 8 mps 756 mmHg 74%
07:00 +4°C° 0.1 mm 7 mps 756 mmHg 80%
08:00 +3°C° 0.1 mm 6 mps 756 mmHg 86%
09:00 +4°C° 0.7 mm 6 mps 756 mmHg 80%
10:00 +4°C° 0.7 mm 7 mps 756 mmHg 73%
11:00 +4°C° 0.7 mm 7 mps 756 mmHg 67%
12:00 +5°C° 0.1 mm 8 mps 756 mmHg 60%
13:00 +6°C° 0.1 mm 9 mps 756 mmHg 53%
14:00 +6°C° 0.1 mm 10 mps 756 mmHg 47%
15:00 +6°C° 0 mm 9 mps 756 mmHg 48%
16:00 +6°C° 0 mm 8 mps 757 mmHg 49%
17:00 +5°C° 0 mm 7 mps 757 mmHg 50%
18:00 +4°C° 0 mm 7 mps 758 mmHg 52%
19:00 +4°C° 0 mm 7 mps 758 mmHg 54%
20:00 +3°C° 0 mm 7 mps 759 mmHg 56%
21:00 +3°C° 0 mm 7 mps 759 mmHg 59%
22:00 +2°C° 0 mm 7 mps 759 mmHg 61%
23:00 +2°C° 0 mm 7 mps 759 mmHg 63%

9 July, Thursday

Time Temperature Precipitation Wind Pressure Humidity
00:00 +1°C° 0 mm 6 mps 759 mmHg 64%
01:00 +1°C° 0 mm 5 mps 759 mmHg 66%
02:00 0°C° 0 mm 5 mps 759 mmHg 68%
03:00 0°C° 0 mm 5 mps 758 mmHg 67%
04:00 0°C° 0 mm 4 mps 758 mmHg 66%
05:00 0°C° 0 mm 4 mps 757 mmHg 66%
06:00 0°C° 0 mm 4 mps 757 mmHg 64%
07:00 0°C° 0 mm 4 mps 757 mmHg 62%
08:00 0°C° 0 mm 4 mps 756 mmHg 61%
09:00 +1°C° 0 mm 4 mps 756 mmHg 55%
10:00 +4°C° 0 mm 4 mps 755 mmHg 49%
11:00 +5°C° 0 mm 4 mps 755 mmHg 43%
12:00 +6°C° 0 mm 5 mps 754 mmHg 45%
13:00 +7°C° 0 mm 5 mps 753 mmHg 47%
14:00 +8°C° 0 mm 6 mps 753 mmHg 49%
15:00 +7°C° 0 mm 5 mps 753 mmHg 53%
16:00 +7°C° 0 mm 5 mps 752 mmHg 57%
17:00 +6°C° 0 mm 5 mps 752 mmHg 61%
18:00 +6°C° 0 mm 5 mps 752 mmHg 62%
19:00 +4°C° 0 mm 6 mps 753 mmHg 63%
20:00 +4°C° 0 mm 6 mps 753 mmHg 64%
21:00 +3°C° 0 mm 7 mps 753 mmHg 72%
22:00 +2°C° 0 mm 8 mps 754 mmHg 80%
23:00 +1°C° 0 mm 9 mps 754 mmHg 88%

10 July, Friday

Time Temperature Precipitation Wind Pressure Humidity
00:00 +1°C° 0 mm 9 mps 755 mmHg 84%
01:00 +1°C° 0 mm 9 mps 755 mmHg 80%
02:00 +1°C° 0 mm 9 mps 756 mmHg 76%
03:00 +1°C° 0 mm 10 mps 756 mmHg 74%
04:00 +1°C° 0 mm 10 mps 757 mmHg 72%
05:00 0°C° 0 mm 10 mps 757 mmHg 70%
06:00 0°C° 0 mm 10 mps 758 mmHg 65%
07:00 0°C° 0 mm 10 mps 758 mmHg 61%
08:00 0°C° 0 mm 9 mps 759 mmHg 56%
09:00 +1°C° 0 mm 10 mps 759 mmHg 51%
10:00 +3°C° 0 mm 10 mps 759 mmHg 46%
11:00 +4°C° 0 mm 11 mps 759 mmHg 42%
12:00 +6°C° 0 mm 11 mps 759 mmHg 40%
13:00 +7°C° 0 mm 10 mps 759 mmHg 39%
14:00 +7°C° 0 mm 10 mps 758 mmHg 38%
15:00 +7°C° 0 mm 9 mps 758 mmHg 40%
16:00 +6°C° 0 mm 7 mps 759 mmHg 42%
17:00 +7°C° 0 mm 6 mps 759 mmHg 45%
18:00 +5°C° 0 mm 6 mps 759 mmHg 48%
19:00 +4°C° 0 mm 6 mps 759 mmHg 51%
20:00 +3°C° 0 mm 6 mps 759 mmHg 54%
21:00 +3°C° 0 mm 6 mps 758 mmHg 55%
22:00 +3°C° 0 mm 5 mps 758 mmHg 56%
23:00 +4°C° 0 mm 4 mps 758 mmHg 56%
Show more